Miscellaneous Local Product
Issued by NWS North Platte, NE

Home | Current Version | Previous Version | Text Only | Print | Product List | Glossary On
Versions: 1 2 3 4 5 6 7 8 9 10 11 12 13 14 15 16 17 18 19 20 21 22 23 24 25 26 27 28 29 30 31 32 33 34 35 36 37 38 39 40 41 42 43 44 45 46 47 48 49 50
000
AXUS43 KLBF 230810
MISLBF


WESTERN AND NORTH CENTRAL NEBRASKA HOURLY WEATHER ROUNDUP
NATIONAL WEATHER SERVICE NORTH PLATTE NE
300 AM CDT MON OCT 23 2017

NOTE: "FAIR" INDICATES FEW OR NO CLOUDS BELOW 12,000 FEET WITH NO
SIGNIFICANT WEATHER AND/OR OBSTRUCTIONS TO VISIBILITY.

NOTE: STATIONS NOT REPORTING VARIABLES SUCH AS SKY/WEATHER OR
PRESSURE ARE PROVIDED BY RAWS AND APRS NETWORKS AND ARE NOT UNDER
NATIONAL WEATHER SERVICE QUALITY CONTROL.

...OBSERVATIONS IN AND NEAR THE EASTERN PANHANDLE OF NEBRASKA...

CITY           SKY/WX    TMP DP  RH WIND       PRES   REMARKS
PINE RIDGE     LGT RAIN  53  36  52 N15G28    30.12R
GORDON         RAIN      49  40  69 N21G28    30.10R
CHADRON        LGT RAIN  48  39  71 NW15G30   30.19R
ALLIANCE       CLOUDY    54  33  45 N26G36    30.10R
SIDNEY         CLEAR     57  31  37 NW18      30.11R
CRESCENT LAKE    N/A     53  33  46 N16G24      N/A
$$

...OBSERVATIONS IN NORTHERN NEBRASKA AND FAR SOUTHERN SOUTH DAKOTA...

CITY           SKY/WX    TMP DP  RH WIND       PRES   REMARKS
WINNER         LGT RAIN  55  45  68 NW12      29.95R
VALENTINE      CLOUDY    56  40  55 NW13G21   30.01R
THEDFORD       CLEAR     57  37  47 N18G26    30.02R
AINSWORTH      CLOUDY    55  40  57 N17G24    29.98R
O`NEILL        CLOUDY    58  37  45 NW25G32   29.91R
ORD            PTCLDY    52  38  58 NW9       29.90R
BROKEN BOW     CLEAR     56  35  45 NW16      29.95R
HALSEY           N/A     54  33  45 W8          N/A
BUTTE            N/A     56  40  55 NW18G29     N/A
CHAMBERS         N/A     59  37  44 S10         N/A
EWING            N/A     53  38  58 W6          N/A
$$

...OBSERVATIONS IN SOUTHWEST NEBRASKA AND FAR NORTHEAST COLORADO...

CITY           SKY/WX    TMP DP  RH WIND       PRES   REMARKS
HOLYOKE        FAIR      61  32  33 NW18G29   30.06F
IMPERIAL       CLEAR     45  32  60 W10       30.03S
OGALLALA       CLEAR     46  34  62 W6        30.01S
NORTH PLATTE   CLEAR     39  34  82 N10       30.01R WCI  32
MCCOOK         CLEAR     45  30  55 W8        30.00S
LEXINGTON      CLEAR     41  33  74 NW7       29.95S
STAPLETON        N/A     51  35  54 NW3         N/A
GOTHENBURG       N/A     49  31  49 CALM        N/A
CALLAWAY         N/A     54  36  50 W12         N/A
$$

...OBSERVATIONS IN CENTRAL LINCOLN COUNTY AREA...

CITY           SKY/WX    TMP DP  RH WIND       PRES   REMARKS
N.P. AIRPORT   CLEAR     39  34  82 N10       30.01R WCI  32
N.P. DOWNTOWN    N/A     47  37  67 W3          N/A
N.P. SOUTHEAST   N/A     46  35  65 MISG        N/A
N.P. HILLCREST   N/A     49  35  59 NW10        N/A
$$

...SOME OBSERVATIONS FROM AROUND THE REGION...

CITY           SKY/WX    TMP DP  RH WIND       PRES   REMARKS
DENVER         CLOUDY    62  24  23 W22G30    30.17R
LIMON          CLOUDY    35  27  72 N5        30.17S WCI  31
ASPEN          CLOUDY    32  26  78 S6        30.48F WCI  26
LARAMIE        CLOUDY    46  27  47 W17G31    30.28R
CASPER         CLOUDY    45  35  68 NE7       30.23R
CHEYENNE       CLEAR     54  28  36 NW30G41   30.20S
SCOTTSBLUFF    CLOUDY    55  33  43 N21G31    30.14R
GRAND ISLAND   CLEAR     49  31  49 SW10      29.89F
OMAHA          CLOUDY    48  36  63 SE12      29.91F
SIOUX FALLS    CLOUDY    50  36  58 W5        29.84R
PIERRE         CLOUDY    54  44  69 W14       29.94R
RAPID CITY     PTCLDY    52  21  29 NW29G39   30.05R
BISMARCK       CLOUDY    50  38  63 W14       29.83R
KANSAS CITY    CLEAR     43  39  86 S8        30.00F
HILL CITY      CLEAR     47  31  53 W8        29.99F
WICHITA        PTCLDY    47  42  83 SW8       30.03S
DODGE CITY     CLEAR     52  31  44 SW12      30.02F
OKLAHOMA CITY  PTCLDY    46  38  73 S5        30.09F
DALLAS         CLEAR     54  45  71 SW8       30.12S
AMARILLO       CLOUDY    48  35  60 SW12      30.11F
$$




USA.gov is the U.S. government's official web portal to all federal, state and local government web resources and services.